San Angelo, TX

6:28 AM CDT on October 20, 2017 (GMT -0500)
San Angelo Regional-Mathis

Weather History for KSJT - November, 2012

Change the Weather History Date:

Thursday, November 29, 2012

  Actual Average Record
Temperature  
Mean Temperature 59 °F 50 °F  
Max Temperature 71 °F 63 °F 81 °F (1975)
Min Temperature 46 °F 37 °F 12 °F (1911)
Degree Days  
Heating Degree Days 6 15  
Month to date heating degree days 188 294  
Since 1 July heating degree days 305 385  
Cooling Degree Days 0 0  
Month to date cooling degree days 40 15  
Year to date cooling degree days 3225 2499  
Growing Degree Days 8 (Base 50)    
Moisture  
Dew Point 48 °F    
Average Humidity 70    
Maximum Humidity 86    
Minimum Humidity 53    
Precipitation  
Precipitation 0.00 in 0.03 in 1.16 in (1929)
Month to date precipitation T 1.12  
Year to date precipitation 21.78 20.38  
Snow  
Snow 0.00 in 0.00 in T in (1972)
Month to date snowfall 0.0 0.3  
Since 1 July snowfall T 0.3  
Snow Depth 0.00 in    
Sea Level Pressure  
Sea Level Pressure 30.12 in    
Wind  
Wind Speed 9 mph (South)    
Max Wind Speed 18 mph    
Max Gust Speed 24 mph    
Visibility 10 miles    
Events      
T = Trace of Precipitation, MM = Missing Value Source: NWS Daily Summary

Daily Weather History Graph

Daily Weather History Graph

Search for Another Location

Airport or City:

Trip Planner

Search our weather history database for the weather conditions in past years. The results will help you decide how hot, cold, wet, or windy it might be!

Date:

Astronomy

Nov. 29, 2012 Rise Set
Actual Time 7:22 AM CST 5:38 PM CST
Civil Twilight 6:55 AM CST 6:05 PM CST
Nautical Twilight 6:25 AM CST 6:35 PM CST
Astronomical Twilight 5:56 AM CST 7:04 PM CST
Moon 6:43 PM CST (11/29) 8:09 AM CST (11/29)
Length of Visible Light 11h 09m
Length of Day
10h 16m
Full, 99% of the Moon is Illuminated
Nov 29
Full
Dec 6
Last Quarter
Dec 13
New
Dec 19
First Quarter
Dec 28
Full

Hourly Weather History & Observations

Time (CST) Temp. Dew Point Humidity Pressure Visibility Wind Dir Wind Speed Gust Speed Precip Events Conditions
2:51 AM 50.0 °F 41.0 °F 71% 30.16 in 10.0 mi SSW 5.8 mph - N/A   Clear
3:51 AM 52.0 °F 43.0 °F 71% 30.15 in 10.0 mi South 8.1 mph - N/A   Clear
4:51 AM 50.0 °F 42.1 °F 74% 30.15 in 10.0 mi SSW 6.9 mph - N/A   Clear
5:51 AM 48.9 °F 42.1 °F 77% 30.15 in 10.0 mi SSW 3.5 mph - N/A   Clear
6:51 AM 48.0 °F 42.1 °F 80% 30.17 in 10.0 mi SSW 3.5 mph - N/A   Clear
7:51 AM 46.0 °F 42.1 °F 86% 30.19 in 9.0 mi Calm Calm - N/A   Clear
8:51 AM 51.1 °F 46.0 °F 83% 30.19 in 9.0 mi SSW 9.2 mph - N/A   Clear
9:51 AM 57.9 °F 48.9 °F 72% 30.17 in 10.0 mi SSW 11.5 mph 18.4 mph N/A   Clear
10:51 AM 62.1 °F 50.0 °F 65% 30.16 in 10.0 mi South 12.7 mph 20.7 mph N/A   Clear
11:51 AM 66.0 °F 50.0 °F 56% 30.15 in 10.0 mi SSW 10.4 mph 23.0 mph N/A   Clear
12:51 PM 68.0 °F 50.0 °F 52% 30.10 in 10.0 mi South 17.3 mph 24.2 mph N/A   Clear
1:51 PM 70.0 °F 51.1 °F 51% 30.07 in 10.0 mi South 12.7 mph 21.9 mph N/A   Clear
2:51 PM 70.0 °F 51.1 °F 51% 30.06 in 10.0 mi South 15.0 mph 20.7 mph N/A   Clear
3:51 PM 69.1 °F 51.1 °F 53% 30.05 in 10.0 mi South 15.0 mph - N/A   Clear
5:51 PM 63.0 °F 52.0 °F 67% 30.07 in 10.0 mi South 11.5 mph - N/A   Clear
6:51 PM 59.0 °F 51.1 °F 75% 30.09 in 10.0 mi SSE 3.5 mph - N/A   Clear
7:51 PM 57.0 °F 51.1 °F 81% 30.10 in 10.0 mi South 6.9 mph - N/A   Clear
8:51 PM 57.9 °F 51.1 °F 78% 30.10 in 10.0 mi South 10.4 mph - N/A   Clear
9:51 PM 55.9 °F 51.1 °F 84% 30.11 in 10.0 mi South 9.2 mph - N/A   Clear
10:51 PM 55.0 °F 51.1 °F 86% 30.11 in 10.0 mi South 9.2 mph - N/A   Clear
11:51 PM 54.0 °F 51.1 °F 90% 30.11 in 10.0 mi South 5.8 mph - N/A   Clear